DJ3AN Weather Reports


time (UTC)temp
C
wind
direction
speed
KPH
gust
KPH
rain 1hr
cm
rain 24hr
cm
rain mn
cm
humidity
%
barometer
mb
20260505205506 12 23 0.0 3.2 0.00 0.66 0.66 89 1009.3
20260505205007 12 36 0.0 0.0 0.00 0.66 0.66 89 1009.3
20260505204506 12 345 0.0 0.0 0.00 0.66 0.66 89 1009.3
20260505204005 12 348 0.0 1.6 0.00 0.66 0.66 89 1009.4
20260505203505 12 2 1.6 4.8 0.00 0.66 0.66 89 1009.5
20260505203005 12 3 0.0 0.0 0.00 0.66 0.66 89 1009.4
20260505202505 12 3 0.0 0.0 0.00 0.66 0.66 89 1009.5
20260505202005 13 16 0.0 1.6 0.00 0.66 0.66 89 1009.4
20260505201505 13 25 0.0 4.8 0.00 0.66 0.66 89 1009.3
20260505201005 13 31 0.0 3.2 0.00 0.66 0.66 89 1009.3
20260505200505 13 48 0.0 0.0 0.00 0.66 0.66 89 1009.3
20260505200005 13 26 0.0 1.6 0.00 0.66 0.66 88 1009.3
20260505195505 13 10 1.6 4.8 0.00 0.66 0.66 88 1009.2
20260505195006 13 9 0.0 3.2 0.00 0.66 0.66 88 1009.2
20260505194505 13 13 0.0 1.6 0.00 0.66 0.66 88 1009.2
20260505194005 13 14 0.0 3.2 0.00 0.66 0.66 88 1009.2
20260505193505 13 6 0.0 3.2 0.00 0.66 0.66 88 1009.1
20260505193005 13 2 1.6 4.8 0.00 0.66 0.66 88 1009.0
20260505192505 13 12 0.0 4.8 0.00 0.66 0.66 88 1009.0
20260505192005 13 10 0.0 4.8 0.00 0.66 0.66 88 1009.0
20260505191505 13 6 0.0 9.7 0.00 0.66 0.66 88 1009.0
20260505191005 13 15 1.6 8.0 0.00 0.66 0.66 88 1008.9
20260505190505 13 22 0.0 3.2 0.00 0.66 0.66 88 1008.9
20260505190005 13 23 1.6 6.4 0.00 0.66 0.66 88 1008.9
20260505185506 13 15 1.6 6.4 0.00 0.66 0.66 88 1008.9
20260505185007 13 28 3.2 4.8 0.00 0.66 0.66 88 1008.9
20260505184506 13 31 0.0 4.8 0.00 0.66 0.66 87 1008.9
20260505184006 13 30 0.0 3.2 0.00 0.66 0.66 87 1008.9
20260505183506 13 16 0.0 3.2 0.00 0.66 0.66 87 1008.9
20260505183006 13 12 0.0 4.8 0.00 0.66 0.66 87 1008.8
20260505182505 13 13 1.6 4.8 0.00 0.66 0.66 87 1008.9
20260505182005 13 22 1.6 3.2 0.00 0.66 0.66 87 1008.9
20260505181505 13 22 0.0 4.8 0.00 0.66 0.66 87 1008.9
20260505181005 13 10 1.6 3.2 0.00 0.66 0.66 86 1008.9
20260505180505 13 9 0.0 4.8 0.00 0.66 0.66 87 1009.0
20260505180006 13 356 0.0 3.2 0.00 0.66 0.66 86 1008.9
20260505175505 13 63 3.2 6.4 0.00 0.66 0.66 86 1008.9
20260505175006 13 27 1.6 4.8 0.00 0.66 0.66 86 1008.9
20260505174505 13 49 1.6 4.8 0.00 0.66 0.66 86 1008.9
20260505174005 13 44 0.0 6.4 0.00 0.66 0.66 85 1009.0
20260505173505 13 43 0.0 6.4 0.00 0.66 0.66 85 1009.0
20260505173005 13 40 1.6 6.4 0.00 0.66 0.66 84 1009.1
20260505172505 13 38 0.0 0.0 0.00 0.66 0.66 84 1009.1
20260505172005 14 38 0.0 0.0 0.00 0.66 0.66 84 1009.1
20260505171506 14 12 0.0 3.2 0.00 0.66 0.66 83 1009.0
20260505171005 14 9 0.0 0.0 0.00 0.66 0.66 83 1009.0
20260505170505 14 12 0.0 1.6 0.00 0.66 0.66 83 1009.1
20260505170006 14 13 0.0 0.0 0.00 0.66 0.66 82 1009.1
20260505165506 14 16 0.0 0.0 0.00 0.66 0.66 82 1009.1
20260505165007 14 15 0.0 0.0 0.00 0.66 0.66 82 1009.1
20260505164506 14 21 0.0 1.6 0.00 0.66 0.66 81 1009.1
20260505164006 14 32 0.0 3.2 0.00 0.66 0.66 81 1009.1
20260505163506 14 50 0.0 3.2 0.00 0.66 0.66 81 1009.1
20260505163007 14 59 0.0 3.2 0.00 0.66 0.66 81 1009.1
20260505162506 14 66 0.0 3.2 0.00 0.66 0.66 81 1009.1
20260505162006 14 70 0.0 0.0 0.00 0.66 0.66 81 1009.1
20260505161506 14 70 0.0 0.0 0.00 0.66 0.66 81 1009.2
20260505161005 14 62 0.0 0.0 0.00 0.66 0.66 81 1009.2
20260505160505 14 31 0.0 0.0 0.00 0.66 0.66 80 1009.2
20260505153005 14 335 0.0 0.0 0.00 0.66 0.66 81 1009.5
20260505152505 14 335 0.0 0.0 0.00 0.66 0.66 81 1009.6
20260505152005 14 322 0.0 0.0 0.00 0.66 0.66 80 1009.6
20260505151505 14 276 0.0 0.0 0.00 0.66 0.66 80 1009.6
20260505151005 14 218 0.0 1.6 0.00 0.66 0.66 79 1009.7
20260505150505 14 201 0.0 0.0 0.00 0.66 0.66 79 1009.7
20260505140505 14 353 0.0 0.0 0.00 0.66 0.66 79 1009.9
20260505125007 13 65 1.6 3.2 0.00 0.66 0.66 79 1010.4
20260505124506 13 9 1.6 6.4 0.00 0.66 0.66 80 1010.4
20260505124006 13 343 1.6 4.8 0.00 0.66 0.66 80 1010.4
20260505123506 13 311 1.6 3.2 0.00 0.66 0.66 80 1010.5
20260505123006 13 319 0.0 0.0 0.00 0.66 0.66 80 1010.5
20260505122506 13 351 0.0 1.6 0.00 0.66 0.66 81 1010.5
20260505122006 13 28 1.6 4.8 0.00 0.66 0.66 81 1010.5
20260505121506 13 41 1.6 3.2 0.00 0.66 0.66 81 1010.5
20260505121006 13 74 3.2 4.8 0.00 0.66 0.66 81 1010.5
20260505120506 13 85 0.0 6.4 0.00 0.66 0.66 82 1010.5
20260505115506 13 45 0.0 6.4 0.00 0.66 0.66 83 1010.5
20260505115007 13 51 0.0 6.4 0.00 0.66 0.66 83 1010.6
20260505114506 12 62 0.0 3.2 0.00 0.66 0.66 84 1010.6
20260505114006 12 59 0.0 1.6 0.00 0.66 0.66 83 1010.6
20260505113506 12 24 1.6 3.2 0.00 0.66 0.66 83 1010.7
20260505113006 12 30 1.6 4.8 0.00 0.66 0.66 84 1010.7
20260505112506 12 27 3.2 4.8 0.00 0.66 0.66 84 1010.7
20260505112006 12 30 1.6 8.0 0.00 0.66 0.66 85 1010.8
20260505111506 12 16 1.6 3.2 0.00 0.66 0.66 85 1010.8
20260505111006 12 16 0.0 4.8 0.00 0.66 0.66 84 1010.8
20260505110506 12 24 0.0 3.2 0.00 0.66 0.66 84 1010.9
20260505102005 12 21 3.2 9.7 0.00 0.66 0.66 86 1010.9
20260505101505 12 15 4.8 11.3 0.00 0.66 0.66 87 1010.9
20260505101005 12 357 3.2 12.9 0.00 0.66 0.66 87 1010.9
20260505100506 12 20 0.0 4.8 0.00 0.66 0.66 88 1011.0
20260505100005 11 13 1.6 11.3 0.00 0.66 0.66 88 1011.1
20260505095505 11 8 3.2 9.7 0.00 0.66 0.66 87 1011.1
20260505095006 11 358 1.6 8.0 0.00 0.66 0.66 90 1011.1
20260505094505 11 355 1.6 9.7 0.00 0.66 0.66 90 1011.2
20260505094005 11 355 1.6 6.4 0.00 0.66 0.66 90 1011.2
20260505093505 11 3 0.0 8.0 0.00 0.66 0.66 91 1011.2
20260505093005 11 15 0.0 0.0 0.00 0.66 0.66 91 1011.3
20260505092505 11 11 0.0 0.0 0.00 0.66 0.66 91 1011.3
20260505092005 11 10 1.6 6.4 0.00 0.66 0.66 91 1011.3
20260505091505 11 2 0.0 3.2 0.00 0.66 0.66 91 1011.3
20260505091005 11 3 0.0 1.6 0.00 0.66 0.66 92 1011.3
20260505090505 11 5 1.6 4.8 0.00 0.66 0.66 92 1011.2
20260505090005 11 15 0.0 1.6 0.00 0.66 0.66 92 1011.2
20260505085505 11 20 0.0 0.0 0.00 0.66 0.66 92 1011.3
20260505085006 10 20 0.0 0.0 0.00 0.66 0.66 92 1011.3
20260505084505 10 20 0.0 0.0 0.00 0.66 0.66 92 1011.4
20260505084005 10 20 0.0 0.0 0.00 0.66 0.66 91 1011.5
20260505083505 10 18 0.0 0.0 0.00 0.66 0.66 92 1011.5
20260505083005 10 13 0.0 0.0 0.00 0.66 0.66 92 1011.4
20260505082505 10 357 0.0 3.2 0.00 0.66 0.66 93 1011.5
20260505082005 10 340 0.0 4.8 0.00 0.66 0.66 92 1011.5
20260505081505 10 337 0.0 4.8 0.00 0.66 0.66 93 1011.5
20260505081005 10 337 0.0 0.0 0.00 0.66 0.66 93 1011.4
20260505080505 10 342 0.0 8.0 0.00 0.66 0.66 93 1011.5
20260505080005 10 339 0.0 3.2 0.00 0.66 0.66 93 1011.5
20260505075505 10 353 0.0 1.6 0.00 0.66 0.66 94 1011.5
20260505075007 10 4 1.6 6.4 0.00 0.66 0.66 93 1011.5
20260505074505 10 15 0.0 4.8 0.00 0.66 0.66 94 1011.5
20260505074006 10 7 0.0 3.2 0.00 0.66 0.66 94 1011.4
20260505073506 10 10 0.0 0.0 0.00 0.66 0.66 94 1011.5
20260505073005 10 332 3.2 6.4 0.00 0.66 0.66 94 1011.4
20260505072506 10 341 0.0 0.0 0.00 0.66 0.66 94 1011.4
20260505072005 9 359 1.6 9.7 0.00 0.66 0.66 94 1011.4
20260505071506 9 15 1.6 6.4 0.00 0.66 0.66 94 1011.4
20260505071005 9 29 0.0 1.6 0.00 0.66 0.66 94 1011.4
20260505070506 9 13 4.8 8.0 0.00 0.66 0.66 95 1011.4
20260505070006 9 355 0.0 6.4 0.00 0.66 0.66 95 1011.4
20260505065506 9 353 1.6 11.3 0.00 0.66 0.66 95 1011.4
20260505065007 9 8 0.0 3.2 0.00 0.66 0.66 95 1011.4
20260505064506 9 356 1.6 6.4 0.00 0.66 0.66 95 1011.4
20260505064005 9 359 0.0 6.4 0.00 0.66 0.66 95 1011.4
20260505063505 9 4 3.2 9.7 0.00 0.66 0.66 95 1011.5
20260505063005 9 15 0.0 0.0 0.00 0.66 0.66 95 1011.4
20260505062505 9 16 0.0 3.2 0.00 0.66 0.66 95 1011.3
20260505062005 9 9 1.6 6.4 0.00 0.66 0.66 95 1011.3
20260505061506 9 16 4.8 9.7 0.00 0.66 0.66 95 1011.4
20260505061005 9 12 1.6 4.8 0.00 0.66 0.66 95 1011.3
20260505060506 9 20 0.0 8.0 0.00 0.66 0.66 96 1011.3
20260505060005 9 22 1.6 8.0 0.00 0.66 0.66 96 1011.3
20260505055505 9 4 0.0 3.2 0.00 0.66 0.66 96 1011.3
20260505055006 9 350 0.0 9.7 0.00 0.66 0.66 96 1011.3
20260505054505 9 334 1.6 8.0 0.00 0.66 0.66 96 1011.3
20260505054005 9 321 0.0 4.8 0.00 0.66 0.66 96 1011.3
20260505053505 9 1 0.0 4.8 0.00 0.66 0.66 96 1011.4
20260505053005 9 351 3.2 6.4 0.00 0.66 0.66 96 1011.4
20260505052505 9 9 0.0 8.0 0.00 0.66 0.66 96 1011.3
20260505052005 9 21 0.0 9.7 0.00 0.66 0.66 96 1011.3
20260505051505 9 20 3.2 9.7 0.00 0.66 0.66 96 1011.2
20260505051005 9 29 3.2 8.0 0.00 0.66 0.66 96 1011.2
20260505050505 9 29 0.0 8.0 0.00 0.66 0.66 96 1011.2
20260505041505 10 358 0.0 1.6 0.00 0.66 0.66 96 1011.2
20260505041005 10 8 3.2 4.8 0.00 0.66 0.66 96 1011.2
20260505040505 10 9 0.0 4.8 0.00 0.66 0.66 96 1011.2
20260505040005 10 9 0.0 0.0 0.03 0.66 0.66 96 1011.2
20260505035505 10 3 0.0 3.2 0.05 0.66 0.66 96 1011.3
20260505035006 10 356 0.0 6.4 0.05 0.66 0.66 96 1011.2
20260505034506 10 358 0.0 8.0 0.05 0.66 0.66 96 1011.3
20260505034005 9 340 4.8 8.0 0.05 0.66 0.66 96 1011.3
20260505033505 10 321 1.6 6.4 0.05 0.66 0.66 96 1011.3
20260505033006 10 14 3.2 8.0 0.05 0.66 0.66 96 1011.3
20260505032506 10 20 3.2 6.4 0.08 0.66 0.66 96 1011.3
20260505032006 10 28 1.6 9.7 0.08 0.66 0.66 96 1011.3
20260505031505 10 3 1.6 4.8 0.10 0.66 0.66 96 1011.4
20260505031005 10 2 0.0 1.6 0.15 0.66 0.66 96 1011.4
20260505030506 10 340 1.6 4.8 0.20 0.66 0.66 96 1011.4
20260505030005 10 354 0.0 4.8 0.23 0.64 0.64 96 1011.4
20260505025506 10 352 1.6 4.8 0.20 0.61 0.61 96 1011.4
20260505025006 10 357 0.0 4.8 0.23 0.61 0.61 96 1011.5
20260505024505 10 308 0.0 4.8 0.25 0.61 0.61 96 1011.5
20260505024005 9 359 1.6 8.0 0.25 0.61 0.61 96 1011.5
20260505023505 9 7 4.8 6.4 0.25 0.61 0.61 96 1011.5
20260505023005 9 19 1.6 8.0 0.25 0.61 0.61 95 1011.6
20260505022505 10 2 3.2 6.4 0.25 0.58 0.58 96 1011.6
20260505022005 10 353 1.6 4.8 0.25 0.58 0.58 95 1011.6
20260505021505 10 347 0.0 4.8 0.23 0.56 0.56 95 1011.6
20260505021005 10 357 1.6 3.2 0.18 0.51 0.51 95 1011.7
20260505020505 10 3 4.8 6.4 0.13 0.46 0.46 95 1011.6
20260505020005 10 15 3.2 8.0 0.08 0.41 0.41 95 1011.7
20260505015505 10 16 3.2 6.4 0.08 0.41 0.41 95 1011.7
20260505015006 10 17 4.8 8.0 0.08 0.38 0.38 95 1011.7
20260505014505 10 13 0.0 4.8 0.05 0.36 0.36 95 1011.7
20260505014005 10 2 1.6 8.0 0.08 0.36 0.36 95 1011.7
20260505013505 10 5 3.2 6.4 0.10 0.36 0.36 95 1011.7
20260505013005 10 1 1.6 6.4 0.13 0.36 0.36 95 1011.7
20260505012505 10 357 0.0 6.4 0.13 0.33 0.33 95 1011.7
20260505012006 10 3 1.6 6.4 0.13 0.33 0.33 95 1011.7
20260505011506 10 4 1.6 8.0 0.15 0.33 0.33 94 1011.7
20260505011006 10 16 1.6 3.2 0.15 0.33 0.33 94 1011.7
20260505010506 10 5 3.2 6.4 0.15 0.33 0.33 94 1011.8
20260505010006 10 2 1.6 8.0 0.18 0.33 0.33 94 1011.7
20260505005506 10 359 1.6 9.7 0.18 0.33 0.33 94 1011.8
20260505005007 10 357 1.6 8.0 0.15 0.30 0.30 93 1011.8
20260505004506 10 349 3.2 6.4 0.18 0.30 0.30 93 1011.7
20260505004006 10 337 4.8 11.3 0.18 0.28 0.28 93 1011.8
20260505003506 10 333 3.2 8.0 0.23 0.25 0.25 92 1011.9
20260505003006 10 8 4.8 8.0 0.23 0.23 0.23 92 1011.9
20260505002506 11 13 0.0 6.4 0.20 0.20 0.20 92 1012.0
20260505002005 11 16 1.6 6.4 0.20 0.20 0.20 91 1012.0
20260505001506 11 16 1.6 3.2 0.18 0.18 0.18 91 1012.1
20260505001006 11 4 0.0 3.2 0.18 0.18 0.18 91 1012.2
20260505000506 11 358 0.0 4.8 0.18 0.18 0.18 90 1012.3
20260505000006 11 351 1.6 4.8 0.15 0.15 0.15 90 1012.3
20260504235506 11 16 0.0 3.2 0.15 0.15 0.15 89 1012.4
20260504235007 11 15 1.6 3.2 0.15 0.15 0.15 89 1012.3
20260504234506 11 15 3.2 6.4 0.13 0.13 0.13 88 1012.4
20260504234006 11 357 1.6 6.4 0.10 0.10 0.10 87 1012.5
20260504233506 11 3 3.2 6.4 0.03 0.03 0.03 87 1012.5
20260504233006 11 352 1.6 4.8 0.00 0.00 0.00 87 1012.5
20260504232506 11 0 1.6 6.4 0.00 0.00 0.00 86 1012.5
20260504232006 11 15 0.0 3.2 0.00 0.00 0.00 86 1012.6
20260504231506 11 35 3.2 4.8 0.00 0.00 0.00 87 1012.5
20260504231006 11 45 1.6 6.4 0.00 0.00 0.00 86 1012.6
20260504230506 11 50 3.2 11.3 0.00 0.00 0.00 86 1012.5
20260504230006 11 73 6.4 9.7 0.00 0.00 0.00 86 1012.2
20260504225506 11 1 3.2 12.9 0.00 0.00 0.00 86 1012.2
20260504225007 11 3 1.6 9.7 0.00 0.00 0.00 87 1012.3
20260504224506 11 11 1.6 9.7 0.00 0.00 0.00 86 1012.3
20260504224006 11 8 4.8 8.0 0.00 0.00 0.00 86 1012.3
20260504223506 11 6 3.2 12.9 0.00 0.00 0.00 86 1012.4
20260504223006 11 1 4.8 11.3 0.00 0.00 0.00 86 1012.4
20260504222506 11 355 1.6 12.9 0.00 0.00 0.00 87 1012.4
20260504222006 11 355 8.0 12.9 0.00 0.00 0.00 86 1012.5
20260504221506 11 2 6.4 14.5 0.00 0.00 0.00 87 1012.6
20260504221006 11 0 3.2 12.9 0.00 0.00 0.00 87 1012.6
20260504220506 11 354 9.7 14.5 0.00 0.00 0.00 86 1012.6
20260504220006 11 356 3.2 11.3 0.00 0.00 0.00 86 1012.7
20260504215506 12 356 1.6 11.3 0.00 0.00 0.00 86 1012.7
20260504215007 12 352 4.8 9.7 0.00 0.00 0.00 86 1012.9
20260504214506 12 352 3.2 12.9 0.00 0.00 0.00 86 1012.9
20260504214005 12 352 1.6 11.3 0.00 0.00 0.00 86 1012.9
20260504213505 12 3 6.4 12.9 0.00 0.00 0.00 86 1012.9
20260504213006 12 7 4.8 8.0 0.00 0.00 0.00 86 1012.5
20260504212505 12 11 3.2 9.7 0.00 0.00 0.00 87 1012.3
20260504212005 12 2 6.4 11.3 0.00 0.00 0.00 86 1012.9
20260504211506 12 2 4.8 12.9 0.00 0.00 0.00 87 1012.9
20260504211007 12 356 3.2 6.4 0.00 0.00 0.00 87 1013.0
20260504210506 12 3 3.2 9.7 0.00 0.00 0.00 87 1013.0
20260504210006 12 356 1.6 8.0 0.00 0.00 0.00 87 1012.9